Location: Ferques
(50.8300°N, 1.7599°E)
Time: 16:41:42
(UTC+00:00)

ISS - Pass Details

Date: 19 May 2025
Orbit: 415 x 417 km, 51.6° (Epoch: 12 June)

Event Time Altitude Azimuth Distance (km) Brightness Sun altitude
Rises 21:46:58 0° 285° (WNW) 2,363 0.8 -14.2°
Reaches altitude 10° 21:49:06 10° 280° (W) 1,496 -0.4 -14.4°
Maximum altitude 21:52:21 49° 205° (SSW) 542 -3.5 -14.7°
Enters shadow 21:53:28 33° 150° (SSE) 722 -3.1 -14.7°
